datetime,flow
1927-10-01,300.0
1927-10-02,300.0
1927-10-03,300.0
1927-10-04,300.0
1927-10-05,300.0
1927-10-06,300.0
1927-10-07,300.0
1927-10-08,300.0
1927-10-09,300.0
1927-10-10,300.0
1927-10-11,300.0
1927-10-12,300.0
1927-10-13,300.0
1927-10-14,300.0
1927-10-15,300.0
1927-10-16,300.0
1927-10-17,300.0
1927-10-18,300.0
1927-10-19,300.0
1927-10-20,300.0
1927-10-21,300.0
1927-10-22,300.0
1927-10-23,300.0
1927-10-24,300.0
1927-10-25,300.0
1927-10-26,300.0
1927-10-27,300.0
1927-10-28,300.0
1927-10-29,300.0
1927-10-30,300.0
1927-10-31,300.0
1927-11-01,236.0
1927-11-02,233.0
1927-11-03,241.0
1927-11-04,241.0
1927-11-05,241.0
1927-11-06,249.0
1927-11-07,258.0
1927-11-08,252.0
1927-11-09,244.0
1927-11-10,235.0
1927-11-11,225.0
1927-11-12,217.0
1927-11-13,215.0
1927-11-14,212.0
1927-11-15,195.0
1927-11-16,195.0
1927-11-17,195.0
1927-11-18,193.0
1927-11-19,193.0
1927-11-20,193.0
1927-11-21,190.0
1927-11-22,188.0
1927-11-23,177.0
1927-11-24,175.0
1927-11-25,179.0
1927-11-26,181.0
1927-11-27,168.0
1927-11-28,146.0
1927-11-29,130.0
1927-11-30,136.0
1927-12-01,100.0
1927-12-02,100.0
1927-12-03,100.0
1927-12-04,100.0
1927-12-05,100.0
1927-12-06,100.0
1927-12-07,100.0
1927-12-08,100.0
1927-12-09,100.0
1927-12-10,100.0
1927-12-11,100.0
1927-12-12,100.0
1927-12-13,100.0
1927-12-14,100.0
1927-12-15,100.0
1927-12-16,100.0
1927-12-17,100.0
1927-12-18,100.0
1927-12-19,100.0
1927-12-20,100.0
1927-12-21,100.0
1927-12-22,100.0
1927-12-23,100.0
1927-12-24,100.0
1927-12-25,100.0
1927-12-26,100.0
1927-12-27,100.0
1927-12-28,100.0
1927-12-29,100.0
1927-12-30,100.0
1927-12-31,100.0
1928-01-01,90.0
1928-01-02,90.0
1928-01-03,90.0
1928-01-04,90.0
1928-01-05,90.0
1928-01-06,90.0
1928-01-07,90.0
1928-01-08,90.0
1928-01-09,90.0
1928-01-10,90.0
1928-01-11,90.0
1928-01-12,90.0
1928-01-13,90.0
1928-01-14,90.0
1928-01-15,90.0
1928-01-16,90.0
1928-01-17,90.0
1928-01-18,90.0
1928-01-19,90.0
1928-01-20,90.0
1928-01-21,90.0
1928-01-22,90.0
1928-01-23,90.0
1928-01-24,90.0
1928-01-25,90.0
1928-01-26,90.0
1928-01-27,90.0
1928-01-28,90.0
1928-01-29,90.0
1928-01-30,90.0
1928-01-31,90.0
1928-02-01,88.0
1928-02-02,88.0
1928-02-03,88.0
1928-02-04,88.0
1928-02-05,88.0
1928-02-06,88.0
1928-02-07,88.0
1928-02-08,88.0
1928-02-09,88.0
1928-02-10,88.0
1928-02-11,88.0
1928-02-12,88.0
1928-02-13,88.0
1928-02-14,88.0
1928-02-15,88.0
1928-02-16,88.0
1928-02-17,88.0
1928-02-18,88.0
1928-02-19,88.0
1928-02-20,88.0
1928-02-21,88.0
1928-02-22,88.0
1928-02-23,88.0
1928-02-24,88.0
1928-02-25,88.0
1928-02-26,88.0
1928-02-27,88.0
1928-02-28,88.0
1928-02-29,88.0
1928-03-01,135.0
1928-03-02,135.0
1928-03-03,135.0
1928-03-04,135.0
1928-03-05,135.0
1928-03-06,135.0
1928-03-07,135.0
1928-03-08,135.0
1928-03-09,135.0
1928-03-10,135.0
1928-03-11,135.0
1928-03-12,135.0
1928-03-13,135.0
1928-03-14,135.0
1928-03-15,135.0
1928-03-16,135.0
1928-03-17,135.0
1928-03-18,135.0
1928-03-19,135.0
1928-03-20,135.0
1928-03-21,135.0
1928-03-22,135.0
1928-03-23,135.0
1928-03-24,135.0
1928-03-25,135.0
1928-03-26,135.0
1928-03-27,135.0
1928-03-28,135.0
1928-03-29,135.0
1928-03-30,135.0
1928-03-31,135.0
1928-04-01,205.0
1928-04-02,210.0
1928-04-03,222.0
1928-04-04,215.0
1928-04-05,198.0
1928-04-06,190.0
1928-04-07,202.0
1928-04-08,173.0
1928-04-09,166.0
1928-04-10,170.0
1928-04-11,170.0
1928-04-12,177.0
1928-04-13,175.0
1928-04-14,170.0
1928-04-15,166.0
1928-04-16,170.0
1928-04-17,195.0
1928-04-18,215.0
1928-04-19,244.0
1928-04-20,252.0
1928-04-21,263.0
1928-04-22,249.0
1928-04-23,258.0
1928-04-24,305.0
1928-04-25,375.0
1928-04-26,362.0
1928-04-27,457.0
1928-04-28,568.0
1928-04-29,586.0
1928-04-30,828.0
1928-05-01,1080.0
1928-05-02,1300.0
1928-05-03,1090.0
1928-05-04,839.0
1928-05-05,866.0
1928-05-06,1040.0
1928-05-07,1280.0
1928-05-08,1220.0
1928-05-09,1460.0
1928-05-10,1360.0
1928-05-11,1180.0
1928-05-12,945.0
1928-05-13,812.0
1928-05-14,710.0
1928-05-15,660.0
1928-05-16,695.0
1928-05-17,650.0
1928-05-18,636.0
1928-05-19,636.0
1928-05-20,660.0
1928-05-21,670.0
1928-05-22,812.0
1928-05-23,992.0
1928-05-24,992.0
1928-05-25,1080.0
1928-05-26,1270.0
1928-05-27,1280.0
1928-05-28,1610.0
1928-05-29,1860.0
1928-05-30,1900.0
1928-05-31,2050.0
1928-06-01,1860.0
1928-06-02,1530.0
1928-06-03,1110.0
1928-06-04,1110.0
1928-06-05,1180.0
1928-06-06,1180.0
1928-06-07,1140.0
1928-06-08,1100.0
1928-06-09,1080.0
1928-06-10,1050.0
1928-06-11,951.0
1928-06-12,828.0
1928-06-13,710.0
1928-06-14,710.0
1928-06-15,685.0
1928-06-16,660.0
1928-06-17,660.0
1928-06-18,735.0
1928-06-19,636.0
1928-06-20,590.0
1928-06-21,660.0
1928-06-22,700.0
1928-06-23,720.0
1928-06-24,670.0
1928-06-25,641.0
1928-06-26,599.0
1928-06-27,612.0
1928-06-28,568.0
1928-06-29,526.0
1928-06-30,495.0
1928-07-01,460.0
1928-07-02,430.0
1928-07-03,407.0
1928-07-04,391.0
1928-07-05,388.0
1928-07-06,359.0
1928-07-07,347.0
1928-07-08,326.0
1928-07-09,302.0
1928-07-10,281.0
1928-07-11,238.0
1928-07-12,270.0
1928-07-13,302.0
1928-07-14,302.0
1928-07-15,299.0
1928-07-16,290.0
1928-07-17,266.0
1928-07-18,260.0
1928-07-19,260.0
1928-07-20,264.0
1928-07-21,258.0
1928-07-22,258.0
1928-07-23,255.0
1928-07-24,233.0
1928-07-25,235.0
1928-07-26,220.0
1928-07-27,200.0
1928-07-28,200.0
1928-07-29,205.0
1928-07-30,215.0
1928-07-31,200.0
1928-08-01,173.0
1928-08-02,177.0
1928-08-03,184.0
1928-08-04,170.0
1928-08-05,166.0
1928-08-06,155.0
1928-08-07,144.0
1928-08-08,136.0
1928-08-09,126.0
1928-08-10,119.0
1928-08-11,116.0
1928-08-12,118.0
1928-08-13,122.0
1928-08-14,122.0
1928-08-15,148.0
1928-08-16,142.0
1928-08-17,128.0
1928-08-18,124.0
1928-08-19,116.0
1928-08-20,108.0
1928-08-21,103.0
1928-08-22,100.0
1928-08-23,106.0
1928-08-24,98.0
1928-08-25,114.0
1928-08-26,153.0
1928-08-27,157.0
1928-08-28,146.0
1928-08-29,138.0
1928-08-30,148.0
1928-08-31,388.0
1928-09-01,317.0
1928-09-02,238.0
1928-09-03,205.0
1928-09-04,177.0
1928-09-05,155.0
1928-09-06,142.0
1928-09-07,134.0
1928-09-08,119.0
1928-09-09,124.0
1928-09-10,170.0
1928-09-11,170.0
1928-09-12,155.0
1928-09-13,138.0
1928-09-14,128.0
1928-09-15,124.0
1928-09-16,119.0
1928-09-17,114.0
1928-09-18,111.0
1928-09-19,106.0
1928-09-20,105.0
1928-09-21,105.0
1928-09-22,98.0
1928-09-23,95.0
1928-09-24,91.0
1928-09-25,88.0
1928-09-26,87.0
1928-09-27,94.0
1928-09-28,111.0
1928-09-29,105.0
1928-09-30,98.0
1928-10-01,98.0
1928-10-02,92.0
1928-10-03,88.0
1928-10-04,82.0
1928-10-05,95.0
1928-10-06,92.0
1928-10-07,88.0
1928-10-08,91.0
1928-10-09,88.0
1928-10-10,95.0
1928-10-11,103.0
1928-10-12,134.0
1928-10-13,180.0
1928-10-14,204.0
1928-10-15,174.0
1928-10-16,165.0
1928-10-17,148.0
1928-10-18,150.0
1928-10-19,148.0
1928-10-20,152.0
1928-10-21,150.0
1928-10-22,147.0
1928-10-23,142.0
1928-10-24,140.0
1928-10-25,138.0
1928-10-26,135.0
1928-10-27,130.0
1928-10-28,129.0
1928-10-29,130.0
1928-10-30,130.0
1928-10-31,180.0
1928-11-01,166.0
1928-11-02,152.0
1928-11-03,143.0
1928-11-04,147.0
1928-11-05,140.0
1928-11-06,143.0
1928-11-07,145.0
1928-11-08,150.0
1928-11-09,142.0
1928-11-10,137.0
1928-11-11,138.0
1928-11-12,135.0
1928-11-13,154.0
1928-11-14,148.0
1928-11-15,155.0
1928-11-16,148.0
1928-11-17,147.0
1928-11-18,140.0
1928-11-19,116.0
1928-11-20,116.0
1928-11-21,116.0
1928-11-22,116.0
1928-11-23,116.0
1928-11-24,120.0
1928-11-25,120.0
1928-11-26,120.0
1928-11-27,120.0
1928-11-28,120.0
1928-11-29,120.0
1928-11-30,115.0
1928-12-01,100.0
1928-12-02,100.0
1928-12-03,100.0
1928-12-04,100.0
1928-12-05,100.0
1928-12-06,100.0
1928-12-07,100.0
1928-12-08,100.0
1928-12-09,100.0
1928-12-10,100.0
1928-12-11,100.0
1928-12-12,100.0
1928-12-13,100.0
1928-12-14,100.0
1928-12-15,100.0
1928-12-16,100.0
1928-12-17,100.0
1928-12-18,100.0
1928-12-19,100.0
1928-12-20,100.0
1928-12-21,100.0
1928-12-22,100.0
1928-12-23,100.0
1928-12-24,100.0
1928-12-25,100.0
1928-12-26,100.0
1928-12-27,100.0
1928-12-28,100.0
1928-12-29,100.0
1928-12-30,100.0
1928-12-31,100.0
1929-01-01,80.0
1929-01-02,80.0
1929-01-03,80.0
1929-01-04,80.0
1929-01-05,80.0
1929-01-06,80.0
1929-01-07,80.0
1929-01-08,80.0
1929-01-09,80.0
1929-01-10,80.0
1929-01-11,80.0
1929-01-12,80.0
1929-01-13,80.0
1929-01-14,80.0
1929-01-15,80.0
1929-01-16,80.0
1929-01-17,80.0
1929-01-18,80.0
1929-01-19,80.0
1929-01-20,80.0
1929-01-21,80.0
1929-01-22,80.0
1929-01-23,80.0
1929-01-24,80.0
1929-01-25,80.0
1929-01-26,80.0
1929-01-27,80.0
1929-01-28,80.0
1929-01-29,80.0
1929-01-30,80.0
1929-01-31,80.0
1929-02-01,70.0
1929-02-02,70.0
1929-02-03,70.0
1929-02-04,70.0
1929-02-05,70.0
1929-02-06,70.0
1929-02-07,70.0
1929-02-08,70.0
1929-02-09,70.0
1929-02-10,70.0
1929-02-11,70.0
1929-02-12,70.0
1929-02-13,70.0
1929-02-14,70.0
1929-02-15,70.0
1929-02-16,70.0
1929-02-17,70.0
1929-02-18,70.0
1929-02-19,70.0
1929-02-20,70.0
1929-02-21,70.0
1929-02-22,70.0
1929-02-23,70.0
1929-02-24,70.0
1929-02-25,70.0
1929-02-26,70.0
1929-02-27,70.0
1929-02-28,70.0
1929-03-01,102.0
1929-03-02,102.0
1929-03-03,102.0
1929-03-04,102.0
1929-03-05,102.0
1929-03-06,102.0
1929-03-07,102.0
1929-03-08,102.0
1929-03-09,102.0
1929-03-10,102.0
1929-03-11,102.0
1929-03-12,102.0
1929-03-13,102.0
1929-03-14,102.0
1929-03-15,102.0
1929-03-16,102.0
1929-03-17,102.0
1929-03-18,102.0
1929-03-19,102.0
1929-03-20,102.0
1929-03-21,102.0
1929-03-22,102.0
1929-03-23,102.0
1929-03-24,102.0
1929-03-25,102.0
1929-03-26,102.0
1929-03-27,102.0
1929-03-28,102.0
1929-03-29,102.0
1929-03-30,102.0
1929-03-31,102.0
1929-04-01,240.0
1929-04-02,270.0
1929-04-03,307.0
1929-04-04,377.0
1929-04-05,391.0
1929-04-06,319.0
1929-04-07,273.0
1929-04-08,252.0
1929-04-09,249.0
1929-04-10,218.0
1929-04-11,208.0
1929-04-12,227.0
1929-04-13,252.0
1929-04-14,254.0
1929-04-15,284.0
1929-04-16,380.0
1929-04-17,501.0
1929-04-18,605.0
1929-04-19,591.0
1929-04-20,517.0
1929-04-21,494.0
1929-04-22,513.0
1929-04-23,478.0
1929-04-24,437.0
1929-04-25,419.0
1929-04-26,401.0
1929-04-27,394.0
1929-04-28,445.0
1929-04-29,553.0
1929-04-30,574.0
1929-05-01,566.0
1929-05-02,574.0
1929-05-03,701.0
1929-05-04,865.0
1929-05-05,1000.0
1929-05-06,1130.0
1929-05-07,1320.0
1929-05-08,1610.0
1929-05-09,1770.0
1929-05-10,1900.0
1929-05-11,1390.0
1929-05-12,1140.0
1929-05-13,1380.0
1929-05-14,1820.0
1929-05-15,2060.0
1929-05-16,1950.0
1929-05-17,1600.0
1929-05-18,1750.0
1929-05-19,1500.0
1929-05-20,1730.0
1929-05-21,1730.0
1929-05-22,1710.0
1929-05-23,1660.0
1929-05-24,1740.0
1929-05-25,2020.0
1929-05-26,2130.0
1929-05-27,1470.0
1929-05-28,1170.0
1929-05-29,985.0
1929-05-30,1020.0
1929-05-31,1350.0
1929-06-01,1570.0
1929-06-02,1860.0
1929-06-03,2080.0
1929-06-04,2220.0
1929-06-05,2130.0
1929-06-06,2010.0
1929-06-07,1990.0
1929-06-08,1950.0
1929-06-09,1920.0
1929-06-10,1770.0
1929-06-11,1440.0
1929-06-12,1410.0
1929-06-13,1420.0
1929-06-14,1570.0
1929-06-15,1570.0
1929-06-16,1410.0
1929-06-17,1420.0
1929-06-18,1160.0
1929-06-19,1240.0
1929-06-20,1310.0
1929-06-21,1330.0
1929-06-22,1290.0
1929-06-23,1230.0
1929-06-24,1140.0
1929-06-25,1060.0
1929-06-26,985.0
1929-06-27,930.0
1929-06-28,900.0
1929-06-29,870.0
1929-06-30,840.0
1929-07-01,815.0
1929-07-02,750.0
1929-07-03,725.0
1929-07-04,640.0
1929-07-05,622.0
1929-07-06,580.0
1929-07-07,540.0
1929-07-08,497.0
1929-07-09,475.0
1929-07-10,430.0
1929-07-11,471.0
1929-07-12,558.0
1929-07-13,478.0
1929-07-14,441.0
1929-07-15,412.0
1929-07-16,394.0
1929-07-17,380.0
1929-07-18,360.0
1929-07-19,529.0
1929-07-20,529.0
1929-07-21,537.0
1929-07-22,467.0
1929-07-23,687.0
1929-07-24,609.0
1929-07-25,663.0
1929-07-26,574.0
1929-07-27,505.0
1929-07-28,875.0
1929-07-29,835.0
1929-07-30,1050.0
1929-07-31,2080.0
1929-08-01,1780.0
1929-08-02,1340.0
1929-08-03,1370.0
1929-08-04,2030.0
1929-08-05,1700.0
1929-08-06,1370.0
1929-08-07,1140.0
1929-08-08,1000.0
1929-08-09,892.0
1929-08-10,1000.0
1929-08-11,2040.0
1929-08-12,1420.0
1929-08-13,1070.0
1929-08-14,908.0
1929-08-15,785.0
1929-08-16,701.0
1929-08-17,631.0
1929-08-18,579.0
1929-08-19,501.0
1929-08-20,452.0
1929-08-21,475.0
1929-08-22,482.0
1929-08-23,430.0
1929-08-24,416.0
1929-08-25,412.0
1929-08-26,437.0
1929-08-27,430.0
1929-08-28,408.0
1929-08-29,405.0
1929-08-30,448.0
1929-08-31,448.0
1929-09-01,482.0
1929-09-02,509.0
1929-09-03,570.0
1929-09-04,596.0
1929-09-05,497.0
1929-09-06,609.0
1929-09-07,682.0
1929-09-08,687.0
1929-09-09,613.0
1929-09-10,553.0
1929-09-11,549.0
1929-09-12,537.0
1929-09-13,475.0
1929-09-14,434.0
1929-09-15,405.0
1929-09-16,380.0
1929-09-17,347.0
1929-09-18,322.0
1929-09-19,304.0
1929-09-20,350.0
1929-09-21,549.0
1929-09-22,805.0
1929-09-23,2220.0
1929-09-24,1390.0
1929-09-25,1050.0
1929-09-26,1140.0
1929-09-27,1050.0
1929-09-28,875.0
1929-09-29,775.0
1929-09-30,672.0
1929-10-01,592.0
1929-10-02,525.0
1929-10-03,476.0
1929-10-04,438.0
1929-10-05,401.0
1929-10-06,370.0
1929-10-07,340.0
1929-10-08,340.0
1929-10-09,394.0
1929-10-10,377.0
1929-10-11,346.0
1929-10-12,320.0
1929-10-13,308.0
1929-10-14,296.0
1929-10-15,288.0
1929-10-16,290.0
1929-10-17,320.0
1929-10-18,305.0
1929-10-19,279.0
1929-10-20,263.0
1929-10-21,251.0
1929-10-22,242.0
1929-10-23,226.0
1929-10-24,222.0
1929-10-25,214.0
1929-10-26,212.0
1929-10-27,204.0
1929-10-28,202.0
1929-10-29,181.0
1929-10-30,187.0
1929-10-31,181.0
1929-11-01,167.0
1929-11-02,163.0
1929-11-03,172.0
1929-11-04,167.0
1929-11-05,165.0
1929-11-06,163.0
1929-11-07,163.0
1929-11-08,158.0
1929-11-09,156.0
1929-11-10,149.0
1929-11-11,149.0
1929-11-12,133.0
1929-11-13,117.0
1929-11-14,120.0
1929-11-15,138.0
1929-11-16,136.0
1929-11-17,129.0
1929-11-18,126.0
1929-11-19,122.0
1929-11-20,117.0
1929-11-21,106.0
1929-11-22,98.0
1929-11-23,106.0
1929-11-24,96.0
1929-11-25,98.0
1929-11-26,100.0
1929-11-27,101.0
1929-11-28,106.0
1929-11-29,103.0
1929-11-30,101.0
1929-12-01,100.0
1929-12-02,90.0
1929-12-03,90.0
1929-12-04,90.0
1929-12-05,96.0
1929-12-06,86.0
1929-12-07,86.0
1929-12-08,84.0
1929-12-09,84.0
1929-12-10,77.0
1929-12-11,79.0
1929-12-12,73.0
1929-12-13,73.0
1929-12-14,70.0
1929-12-15,70.0
1929-12-16,70.0
1929-12-17,69.0
1929-12-18,63.0
1929-12-19,56.0
1929-12-20,56.0
1929-12-21,57.0
1929-12-22,62.0
1929-12-23,56.0
1929-12-24,56.0
1929-12-25,56.0
1929-12-26,56.0
1929-12-27,56.0
1929-12-28,54.0
1929-12-29,52.0
1929-12-30,56.0
1929-12-31,50.0
1930-01-01,50.0
1930-01-02,50.0
1930-01-03,50.0
1930-01-04,46.0
1930-01-05,43.0
1930-01-06,43.0
1930-01-07,43.0
1930-01-08,43.0
1930-01-09,43.0
1930-01-10,43.0
1930-01-11,43.0
1930-01-12,40.0
1930-01-13,40.0
1930-01-14,40.0
1930-01-15,40.0
1930-01-16,40.0
1930-01-17,40.0
1930-01-18,40.0
1930-01-19,40.0
1930-01-20,40.0
1930-01-21,40.0
1930-01-22,40.0
1930-01-23,40.0
1930-01-24,40.0
1930-01-25,40.0
1930-01-26,45.0
1930-01-27,45.0
1930-01-28,45.0
1930-01-29,45.0
1930-01-30,45.0
1930-01-31,45.0
1930-02-01,45.0
1930-02-02,45.0
1930-02-03,45.0
1930-02-04,45.0
1930-02-05,45.0
1930-02-06,50.0
1930-02-07,50.0
1930-02-08,55.0
1930-02-09,55.0
1930-02-10,60.0
1930-02-11,66.0
1930-02-12,66.0
1930-02-13,66.0
1930-02-14,68.0
1930-02-15,68.0
1930-02-16,69.0
1930-02-17,66.0
1930-02-18,65.0
1930-02-19,69.0
1930-02-20,70.0
1930-02-21,72.0
1930-02-22,72.0
1930-02-23,75.0
1930-02-24,75.0
1930-02-25,72.0
1930-02-26,72.0
1930-02-27,77.0
1930-02-28,73.0
1930-03-01,69.0
1930-03-02,79.0
1930-03-03,79.0
1930-03-04,73.0
1930-03-05,76.0
1930-03-06,75.0
1930-03-07,73.0
1930-03-08,70.0
1930-03-09,70.0
1930-03-10,70.0
1930-03-11,72.0
1930-03-12,72.0
1930-03-13,75.0
1930-03-14,76.0
1930-03-15,76.0
1930-03-16,83.0
1930-03-17,86.0
1930-03-18,79.0
1930-03-19,79.0
1930-03-20,80.0
1930-03-21,86.0
1930-03-22,92.0
1930-03-23,100.0
1930-03-24,103.0
1930-03-25,112.0
1930-03-26,119.0
1930-03-27,109.0
1930-03-28,98.0
1930-03-29,101.0
1930-03-30,106.0
1930-03-31,112.0
1930-04-01,112.0
1930-04-02,117.0
1930-04-03,124.0
1930-04-04,140.0
1930-04-05,171.0
1930-04-06,218.0
1930-04-07,293.0
1930-04-08,360.0
1930-04-09,419.0
1930-04-10,438.0
1930-04-11,405.0
1930-04-12,374.0
1930-04-13,401.0
1930-04-14,453.0
1930-04-15,472.0
1930-04-16,438.0
1930-04-17,387.0
1930-04-18,350.0
1930-04-19,377.0
1930-04-20,464.0
1930-04-21,636.0
1930-04-22,731.0
1930-04-23,760.0
1930-04-24,750.0
1930-04-25,726.0
1930-04-26,694.0
1930-04-27,703.0
1930-04-28,649.0
1930-04-29,579.0
1930-04-30,554.0
1930-05-01,588.0
1930-05-02,736.0
1930-05-03,794.0
1930-05-04,640.0
1930-05-05,550.0
1930-05-06,476.0
1930-05-07,445.0
1930-05-08,398.0
1930-05-09,353.0
1930-05-10,323.0
1930-05-11,311.0
1930-05-12,302.0
1930-05-13,296.0
1930-05-14,360.0
1930-05-15,525.0
1930-05-16,685.0
1930-05-17,558.0
1930-05-18,457.0
1930-05-19,449.0
1930-05-20,614.0
1930-05-21,964.0
1930-05-22,1020.0
1930-05-23,799.0
1930-05-24,914.0
1930-05-25,1040.0
1930-05-26,1180.0
1930-05-27,1350.0
1930-05-28,1500.0
1930-05-29,1660.0
1930-05-30,1540.0
1930-05-31,1640.0
1930-06-01,1130.0
1930-06-02,1010.0
1930-06-03,975.0
1930-06-04,1000.0
1930-06-05,1090.0
1930-06-06,1350.0
1930-06-07,1420.0
1930-06-08,1380.0
1930-06-09,1300.0
1930-06-10,1200.0
1930-06-11,1200.0
1930-06-12,1270.0
1930-06-13,1260.0
1930-06-14,1110.0
1930-06-15,992.0
1930-06-16,925.0
1930-06-17,860.0
1930-06-18,925.0
1930-06-19,866.0
1930-06-20,794.0
1930-06-21,750.0
1930-06-22,745.0
1930-06-23,654.0
1930-06-24,558.0
1930-06-25,484.0
1930-06-26,430.0
1930-06-27,394.0
1930-06-28,384.0
1930-06-29,360.0
1930-06-30,320.0
1930-07-01,299.0
1930-07-02,296.0
1930-07-03,268.0
1930-07-04,261.0
1930-07-05,246.0
1930-07-06,237.0
1930-07-07,229.0
1930-07-08,235.0
1930-07-09,240.0
1930-07-10,237.0
1930-07-11,256.0
1930-07-12,266.0
1930-07-13,244.0
1930-07-14,274.0
1930-07-15,266.0
1930-07-16,242.0
1930-07-17,256.0
1930-07-18,266.0
1930-07-19,521.0
1930-07-20,500.0
1930-07-21,745.0
1930-07-22,760.0
1930-07-23,698.0
1930-07-24,592.0
1930-07-25,584.0
1930-07-26,529.0
1930-07-27,829.0
1930-07-28,712.0
1930-07-29,618.0
1930-07-30,571.0
1930-07-31,689.0
1930-08-01,662.0
1930-08-02,554.0
1930-08-03,476.0
1930-08-04,412.0
1930-08-05,430.0
1930-08-06,426.0
1930-08-07,449.0
1930-08-08,453.0
1930-08-09,419.0
1930-08-10,640.0
1930-08-11,784.0
1930-08-12,667.0
1930-08-13,755.0
1930-08-14,680.0
1930-08-15,592.0
1930-08-16,525.0
1930-08-17,468.0
1930-08-18,405.0
1930-08-19,350.0
1930-08-20,305.0
1930-08-21,276.0
1930-08-22,256.0
1930-08-23,251.0
1930-08-24,258.0
1930-08-25,249.0
1930-08-26,249.0
1930-08-27,229.0
1930-08-28,226.0
1930-08-29,216.0
1930-08-30,190.0
1930-08-31,180.0
1930-09-01,171.0
1930-09-02,163.0
1930-09-03,160.0
1930-09-04,163.0
1930-09-05,190.0
1930-09-06,216.0
1930-09-07,190.0
1930-09-08,183.0
1930-09-09,181.0
1930-09-10,167.0
1930-09-11,158.0
1930-09-12,151.0
1930-09-13,145.0
1930-09-14,140.0
1930-09-15,136.0
1930-09-16,129.0
1930-09-17,124.0
1930-09-18,122.0
1930-09-19,116.0
1930-09-20,116.0
1930-09-21,111.0
1930-09-22,109.0
1930-09-23,124.0
1930-09-24,117.0
1930-09-25,117.0
1930-09-26,119.0
1930-09-27,114.0
1930-09-28,111.0
1930-09-29,106.0
1930-09-30,122.0
1930-10-01,158.0
1930-10-02,153.0
1930-10-03,138.0
1930-10-04,137.0
1930-10-05,128.0
1930-10-06,126.0
1930-10-07,122.0
1930-10-08,119.0
1930-10-09,119.0
1930-10-10,119.0
1930-10-11,174.0
1930-10-12,164.0
1930-10-13,164.0
1930-10-14,158.0
1930-10-15,155.0
1930-10-16,151.0
1930-10-17,144.0
1930-10-18,142.0
1930-10-19,138.0
1930-10-20,137.0
1930-10-21,129.0
1930-10-22,124.0
1930-10-23,121.0
1930-10-24,118.0
1930-10-25,110.0
1930-10-26,109.0
1930-10-27,102.0
1930-10-28,101.0
1930-10-29,96.0
1930-10-30,93.0
1930-10-31,93.0
1930-11-01,90.0
1930-11-02,87.0
1930-11-03,85.0
1930-11-04,85.0
1930-11-05,85.0
1930-11-06,84.0
1930-11-07,81.0
1930-11-08,80.0
1930-11-09,78.0
1930-11-10,78.0
1930-11-11,78.0
1930-11-12,77.0
1930-11-13,76.0
1930-11-14,81.0
1930-11-15,78.0
1930-11-16,76.0
1930-11-17,83.0
1930-11-18,85.0
1930-11-19,76.0
1930-11-20,73.0
1930-11-21,72.0
1930-11-22,76.0
1930-11-23,71.0
1930-11-24,73.0
1930-11-25,76.0
1930-11-26,73.0
1930-11-27,80.0
1930-11-28,80.0
1930-11-29,73.0
1930-11-30,80.0
1930-12-01,55.0
1930-12-02,55.0
1930-12-03,55.0
1930-12-04,55.0
1930-12-05,55.0
1930-12-06,55.0
1930-12-07,55.0
1930-12-08,55.0
1930-12-09,55.0
1930-12-10,55.0
1930-12-11,55.0
1930-12-12,55.0
1930-12-13,55.0
1930-12-14,55.0
1930-12-15,55.0
1930-12-16,55.0
1930-12-17,55.0
1930-12-18,55.0
1930-12-19,55.0
1930-12-20,55.0
1930-12-21,55.0
1930-12-22,55.0
1930-12-23,55.0
1930-12-24,55.0
1930-12-25,55.0
1930-12-26,55.0
1930-12-27,55.0
1930-12-28,55.0
1930-12-29,55.0
1930-12-30,55.0
1930-12-31,55.0
1931-01-01,42.0
1931-01-02,42.0
1931-01-03,42.0
1931-01-04,42.0
1931-01-05,42.0
1931-01-06,42.0
1931-01-07,42.0
1931-01-08,42.0
1931-01-09,42.0
1931-01-10,42.0
1931-01-11,42.0
1931-01-12,42.0
1931-01-13,42.0
1931-01-14,42.0
1931-01-15,42.0
1931-01-16,42.0
1931-01-17,42.0
1931-01-18,42.0
1931-01-19,42.0
1931-01-20,42.0
1931-01-21,42.0
1931-01-22,42.0
1931-01-23,42.0
1931-01-24,42.0
1931-01-25,42.0
1931-01-26,42.0
1931-01-27,42.0
1931-01-28,42.0
1931-01-29,42.0
1931-01-30,42.0
1931-01-31,42.0
1931-02-01,46.0
1931-02-02,46.0
1931-02-03,46.0
1931-02-04,46.0
1931-02-05,46.0
1931-02-06,46.0
1931-02-07,46.0
1931-02-08,46.0
1931-02-09,46.0
1931-02-10,46.0
1931-02-11,46.0
1931-02-12,46.0
1931-02-13,46.0
1931-02-14,46.0
1931-02-15,46.0
1931-02-16,46.0
1931-02-17,46.0
1931-02-18,46.0
1931-02-19,46.0
1931-02-20,46.0
1931-02-21,46.0
1931-02-22,46.0
1931-02-23,46.0
1931-02-24,46.0
1931-02-25,46.0
1931-02-26,46.0
1931-02-27,46.0
1931-02-28,46.0
1931-03-01,56.0
1931-03-02,56.0
1931-03-03,56.0
1931-03-04,57.0
1931-03-05,56.0
1931-03-06,57.0
1931-03-07,60.0
1931-03-08,62.0
1931-03-09,63.0
1931-03-10,61.0
1931-03-11,62.0
1931-03-12,61.0
1931-03-13,63.0
1931-03-14,64.0
1931-03-15,65.0
1931-03-16,65.0
1931-03-17,66.0
1931-03-18,67.0
1931-03-19,71.0
1931-03-20,70.0
1931-03-21,72.0
1931-03-22,78.0
1931-03-23,80.0
1931-03-24,77.0
1931-03-25,81.0
1931-03-26,72.0
1931-03-27,73.0
1931-03-28,73.0
1931-03-29,70.0
1931-03-30,67.0
1931-03-31,69.0
1931-04-01,76.0
1931-04-02,84.0
1931-04-03,87.0
1931-04-04,85.0
1931-04-05,93.0
1931-04-06,105.0
1931-04-07,128.0
1931-04-08,142.0
1931-04-09,138.0
1931-04-10,140.0
1931-04-11,156.0
1931-04-12,174.0
1931-04-13,184.0
1931-04-14,186.0
1931-04-15,196.0
1931-04-16,196.0
1931-04-17,194.0
1931-04-18,200.0
1931-04-19,239.0
1931-04-20,277.0
1931-04-21,269.0
1931-04-22,272.0
1931-04-23,279.0
1931-04-24,279.0
1931-04-25,266.0
1931-04-26,252.0
1931-04-27,249.0
1931-04-28,249.0
1931-04-29,246.0
1931-04-30,254.0
1931-05-01,295.0
1931-05-02,329.0
1931-05-03,335.0
1931-05-04,373.0
1931-05-05,379.0
1931-05-06,395.0
1931-05-07,455.0
1931-05-08,515.0
1931-05-09,466.0
1931-05-10,408.0
1931-05-11,367.0
1931-05-12,367.0
1931-05-13,455.0
1931-05-14,612.0
1931-05-15,700.0
1931-05-16,890.0
1931-05-17,926.0
1931-05-18,1110.0
1931-05-19,896.0
1931-05-20,667.0
1931-05-21,531.0
1931-05-22,473.0
1931-05-23,626.0
1931-05-24,777.0
1931-05-25,962.0
1931-05-26,1000.0
1931-05-27,761.0
1931-05-28,617.0
1931-05-29,755.0
1931-05-30,950.0
1931-05-31,1080.0
1931-06-01,1200.0
1931-06-02,1140.0
1931-06-03,1170.0
1931-06-04,1150.0
1931-06-05,992.0
1931-06-06,1090.0
1931-06-07,1140.0
1931-06-08,1160.0
1931-06-09,974.0
1931-06-10,866.0
1931-06-11,772.0
1931-06-12,878.0
1931-06-13,920.0
1931-06-14,843.0
1931-06-15,896.0
1931-06-16,890.0
1931-06-17,826.0
1931-06-18,735.0
1931-06-19,662.0
1931-06-20,599.0
1931-06-21,561.0
1931-06-22,504.0
1931-06-23,523.0
1931-06-24,500.0
1931-06-25,500.0
1931-06-26,488.0
1931-06-27,459.0
1931-06-28,766.0
1931-06-29,755.0
1931-06-30,832.0
1931-07-01,810.0
1931-07-02,578.0
1931-07-03,700.0
1931-07-04,826.0
1931-07-05,569.0
1931-07-06,466.0
1931-07-07,395.0
1931-07-08,349.0
1931-07-09,317.0
1931-07-10,292.0
1931-07-11,274.0
1931-07-12,254.0
1931-07-13,232.0
1931-07-14,209.0
1931-07-15,200.0
1931-07-16,207.0
1931-07-17,194.0
1931-07-18,205.0
1931-07-19,252.0
1931-07-20,220.0
1931-07-21,192.0
1931-07-22,174.0
1931-07-23,165.0
1931-07-24,156.0
1931-07-25,153.0
1931-07-26,165.0
1931-07-27,180.0
1931-07-28,176.0
1931-07-29,180.0
1931-07-30,239.0
1931-07-31,441.0
1931-08-01,376.0
1931-08-02,285.0
1931-08-03,237.0
1931-08-04,209.0
1931-08-05,194.0
1931-08-06,292.0
1931-08-07,269.0
1931-08-08,298.0
1931-08-09,264.0
1931-08-10,234.0
1931-08-11,211.0
1931-08-12,192.0
1931-08-13,182.0
1931-08-14,164.0
1931-08-15,151.0
1931-08-16,149.0
1931-08-17,158.0
1931-08-18,176.0
1931-08-19,160.0
1931-08-20,142.0
1931-08-21,135.0
1931-08-22,129.0
1931-08-23,124.0
1931-08-24,117.0
1931-08-25,109.0
1931-08-26,101.0
1931-08-27,96.0